Moline, IL

1:40 PM CDT on March 28, 2017 (GMT -0500)
Quad-City International

Weather History for KMLI - July, 2014

Change the Weather History Date:

Monday, July 28, 2014

  Actual Average Record
Temperature  
Mean Temperature 65 °F 75 °F  
Max Temperature 75 °F 85 °F 102 °F (1983)
Min Temperature 55 °F 65 °F 52 °F (1925)
Degree Days  
Heating Degree Days 0 0  
Month to date heating degree days 4 0  
Since 1 June heating degree days 8 19  
Since 1 July heating degree days 4 0  
Cooling Degree Days 0 10  
Month to date cooling degree days 159 296  
Year to date cooling degree days 493 586  
Since 1 June cooling degree days 388 510  
Growing Degree Days 16 (Base 50)    
Moisture  
Dew Point 52 °F    
Average Humidity 64    
Maximum Humidity 86    
Minimum Humidity 41    
Precipitation  
Precipitation 0.00 in 0.12 in 2.73 in (1911)
Month to date precipitation 1.78 3.92  
Year to date precipitation 24.25 22.27  
Snow  
Snow 0.00 in 0.00 in - ()
Month to date snowfall 0.0 0.0  
Since 1 June snowfall 0.0 0.0  
Since 1 July snowfall 0.0 0.0  
Snow Depth 0.00 in    
Sea Level Pressure  
Sea Level Pressure 30.09 in    
Wind  
Wind Speed 7 mph (North)    
Max Wind Speed 17 mph    
Max Gust Speed 25 mph    
Visibility 10 miles    
Events      
T = Trace of Precipitation, MM = Missing Value Source: NWS Daily Summary

Daily Weather History Graph

Daily Weather History Graph

Search for Another Location

Airport or City:

Trip Planner

Search our weather history database for the weather conditions in past years. The results will help you decide how hot, cold, wet, or windy it might be!

Date:

Astronomy

Jul. 28, 2014 Rise Set
Actual Time 5:53 AM CDT 8:23 PM CDT
Civil Twilight 5:21 AM CDT 8:54 PM CDT
Nautical Twilight 4:42 AM CDT 9:34 PM CDT
Astronomical Twilight 3:57 AM CDT 10:18 PM CDT
Moon 7:36 AM CDT 9:03 PM CDT
Length of Visible Light 15h 33m
Length of Day
14h 30m
Waxing Crescent, 3% of the Moon is Illuminated
Jul 28
Waxing Crescent
Aug 3
First Quarter
Aug 10
Full
Aug 17
Last Quarter
Aug 25
New

Hourly Weather History & Observations

Time (CDT) Temp. Dew Point Humidity Pressure Visibility Wind Dir Wind Speed Gust Speed Precip Events Conditions
12:52 AM 68.0 °F 60.1 °F 76% 29.98 in 10.0 mi NW 8.1 mph - N/A   Mostly Cloudy
1:52 AM 66.0 °F 59.0 °F 78% 29.99 in 10.0 mi NNW 6.9 mph - N/A   Clear
2:52 AM 66.0 °F 59.0 °F 78% 30.01 in 10.0 mi North 5.8 mph - N/A   Mostly Cloudy
3:52 AM 66.0 °F 59.0 °F 78% 30.02 in 10.0 mi NNE 10.4 mph 17.3 mph N/A   Overcast
4:30 AM 64.4 °F 55.4 °F 73% 30.04 in 10.0 mi NNE 13.8 mph 17.3 mph N/A   Overcast
4:52 AM 64.0 °F 55.0 °F 73% 30.05 in 10.0 mi NNE 8.1 mph - N/A   Mostly Cloudy
5:14 AM 64.4 °F 53.6 °F 68% 30.06 in 10.0 mi NNE 6.9 mph - N/A   Scattered Clouds
5:28 AM 62.6 °F 53.6 °F 72% 30.07 in 10.0 mi North 8.1 mph - N/A   Mostly Cloudy
5:52 AM 62.1 °F 53.1 °F 72% 30.06 in 10.0 mi North 5.8 mph - N/A   Partly Cloudy
6:52 AM 62.1 °F 53.1 °F 72% 30.09 in 10.0 mi North 8.1 mph - N/A   Clear
7:52 AM 64.0 °F 53.1 °F 67% 30.11 in 10.0 mi North 8.1 mph - N/A   Clear
8:52 AM 64.4 °F 51.8 °F 64% 30.13 in 10.0 mi North 11.5 mph 17.3 mph N/A   Clear
9:52 AM 66.9 °F 50.0 °F 54% 30.13 in 10.0 mi Variable 6.9 mph 18.4 mph N/A   Clear
10:52 AM 68.0 °F 48.9 °F 50% 30.14 in 10.0 mi North 13.8 mph - N/A   Partly Cloudy
11:52 AM 71.1 °F 48.0 °F 44% 30.14 in 10.0 mi NNE 11.5 mph - N/A   Clear
12:52 PM 71.6 °F 48.2 °F 43% 30.14 in 10.0 mi North 9.2 mph 23.0 mph N/A   Clear
1:52 PM 71.6 °F 46.4 °F 41% 30.14 in 10.0 mi NNE 12.7 mph 20.7 mph N/A   Scattered Clouds
2:52 PM 73.0 °F 48.9 °F 42% 30.13 in 10.0 mi NNW 9.2 mph - N/A   Mostly Cloudy
3:52 PM 73.4 °F 50.0 °F 44% 30.14 in 10.0 mi North 9.2 mph - N/A   Mostly Cloudy
4:52 PM 71.6 °F 48.2 °F 43% 30.14 in 10.0 mi NNW 8.1 mph - N/A   Overcast
5:52 PM 73.0 °F 50.0 °F 44% 30.12 in 10.0 mi NW 6.9 mph - N/A   Partly Cloudy
6:52 PM 72.0 °F 50.0 °F 46% 30.11 in 10.0 mi NNW 6.9 mph - N/A   Clear
7:52 PM 70.0 °F 48.9 °F 47% 30.11 in 10.0 mi NNW 4.6 mph - N/A   Clear
8:52 PM 61.0 °F 53.1 °F 75% 30.11 in 10.0 mi Calm Calm - N/A   Clear
9:52 PM 59.0 °F 53.1 °F 81% 30.11 in 10.0 mi Calm Calm - N/A   Clear
10:52 PM 57.0 °F 53.1 °F 87% 30.11 in 10.0 mi Calm Calm - N/A   Clear
11:52 PM 57.0 °F 52.0 °F 83% 30.11 in 10.0 mi Calm Calm - N/A   Clear